Flag for Colombia Weather past 2 weeks in Cúcuta, Colombia

Now
75 °F

Passing clouds.


Feels Like: 75 °F
Forecast: 66 / 94 °F
Wind: N/A

Location: San Antonio Del Tachira Airport

Current Time: Dec 21, 2014 at 3:54:59 AM

Latest Report: Dec 21, 2014 at 1:00 AM


Visibility: N/A

Pressure: 29.95 "Hg

Humidity: 83%

Dew point: 70 °F

Location of CúcutaLocation

Historic Weather in Cúcuta — Graph

°F

Cúcuta temperature yesterday

Maximum temperature yesterday: 90 °F (at 3:00 PM)
Minimum temperature yesterday: 73 °F (at 4:00 AM)
Average temperature yesterday: 81 °F

Past Weeks' High & Low Weather Summary

 TemperatureHumidityPressure
High95 °F (Dec 12, 1:00 PM)100% (Dec 6, 9:00 AM)30.04 "Hg (Dec 6, 9:00 AM)
Low72 °F (Dec 8, 7:00 AM)34% (Dec 10, 11:00 AM)29.80 "Hg (Dec 7, 4:00 PM)
Average81 °F70%29.92 "Hg
* Reported Dec 6 7:00 AM — Dec 21 1:00 AM, Cúcuta, Weather by CustomWeather, © 2014

Note: Actual official high and low records may vary slightly from our data, if they occured in-between our weather recording intervals... More about our weather records

Advertising

Cúcuta weather history for previous 24 hours

 ConditionsComfort  
Time TempWeatherWind HumidityBarometerVisibility
1:00 AM
Dec 21
75 °FPassing clouds.N/A83%29.95 "HgN/A
9:00 PM
Dec 20
77 °FPassing clouds.N/A79%29.95 "HgN/A
8:00 PM77 °FPassing clouds.N/A79%29.95 "HgN/A
7:00 PM79 °FPassing clouds.N/A70%29.92 "HgN/A
6:00 PM81 °FPassing clouds.N/A62%29.89 "HgN/A
5:00 PM84 °FPassing clouds.N/A58%29.92 "HgN/A
4:00 PM86 °FPartly sunny.N/A55%29.89 "HgN/A
3:00 PM90 °FPartly sunny.N/A46%29.89 "HgN/A
1:00 PM88 °FPartly sunny.N/A52%29.92 "HgN/A
12:00 PM86 °FPartly sunny.N/A52%29.95 "HgN/A
11:00 AM86 °FPartly sunny.N/A49%29.98 "HgN/A
10:00 AM84 °FFog.N/A51%29.98 "Hg5 mi
9:00 AM81 °FPartly sunny.N/A51%29.98 "HgN/A
8:00 AM77 °FPassing clouds.N/A69%29.98 "HgN/A
6:00 AM73 °FPartly sunny.N/A83%29.92 "HgN/A
5:00 AM73 °FScattered clouds.N/A89%29.92 "HgN/A
4:00 AM73 °FPassing clouds.N/A94%29.92 "HgN/A
Weather by CustomWeather, © 2014

See weather overviewHow to use our weather pages